Temp
21 24 24 24 24 24 24 24 24 24 23 22 22 21 21 21 21 21 21 20 20 20 19 19 19 20 20 20 19 19 19 19 19 19 19 19 19 19 19 18 18 18 18
23 24 24 24 24 24 24 24 24 23 23 22 22 21 21 21 21 20 20 20 19 19 19 20 20 20 19 19 19 19 18 18 18 18 19 19 19 19 19 18 18 18 18
24 24 24 24 24 24 24 23 23 23 22 22 21 21 21 21 21 20 20 20 20 20 20 20 20 20 19 19 19 18 18 18 18 18 18 18 18 18 19 18 18 18 18
24 23 23 23 23 23 23 23 23 22 22 22 21 21 21 21 21 20 20 20 20 20 21 20 20 20 20 19 19 19 18 18 18 18 18 18 17 18 18 18 18 18 17
24 23 23 23 23 23 23 23 22 22 22 21 21 21 21 21 21 21 21 21 20 21 21 21 20 20 20 19 19 19 19 18 18 18 18 18 18 17 18 18 18 17 18
22 23 23 23 23 23 23 22 22 21 22 21 21 21 21 21 21 21 21 21 21 21 20 20 20 20 20 20 20 19 19 19 18 18 18 18 18 18 18 18 18 18 17
22 23 23 22 23 22 22 22 22 21 21 21 21 21 21 21 21 21 21 21 21 20 20 20 20 20 20 19 19 19 19 19 19 18 18 18 18 18 18 18 18 17 17
24 23 23 22 22 22 22 22 21 21 21 22 21 21 21 21 21 20 20 20 20 20 19 19 20 20 19 19 19 19 19 19 19 19 19 19 18 18 18 18 18 17 17
23 23 22 22 21 22 22 22 21 21 22 21 21 21 21 21 20 20 20 20 20 20 20 20 20 19 19 20 19 19 19 19 19 19 19 18 18 18 18 18 18 17 17
22 22 21 21 21 22 22 21 21 22 22 21 22 21 21 20 20 19 20 20 20 20 20 19 20 19 20 19 20 20 19 19 19 19 18 18 18 18 18 18 18 17 17
21 22 22 21 21 21 21 21 21 21 21 21 21 21 21 20 20 20 20 20 20 20 19 19 19 19 19 19 19 19 19 19 19 18 18 18 18 18 17 17 17 17 17
19 20 22 22 22 21 21 21 20 21 21 21 21 21 20 20 19 20 20 19 20 19 19 19 19 19 19 19 19 19 19 19 19 19 19 19 19 18 17 17 17 17 17
21 21 21 22 22 22 21 20 20 20 20 20 20 20 21 20 19 19 19 19 19 19 19 19 19 19 19 19 19 19 19 19 19 19 19 19 19 18 17 17 17 16 16
20 21 22 22 22 21 21 20 20 20 20 20 20 20 20 19 19 19 19 19 19 19 19 19 19 19 19 19 19 19 19 19 19 19 19 19 18 18 17 17 16 16 15
20 21 22 22 22 21 21 21 21 20 20 20 20 20 19 19 19 19 19 19 19 19 19 19 19 19 19 19 18 18 18 18 18 18 18 18 18 18 17 17 16 15 15
20 21 22 22 22 21 21 21 21 20 20 20 20 20 20 19 19 19 19 19 19 19 19 19 19 19 19 19 18 18 18 18 18 18 18 18 18 18 17 17 16 16 15
21 20 21 21 20 20 20 21 20 20 20 20 20 20 20 19 19 19 19 19 19 19 19 19 19 18 18 18 18 18 17 17 17 17 17 16 16 16 16 16 16 16 16
21 20 20 20 20 19 20 19 19 19 20 20 20 20 20 19 19 19 19 19 19 19 19 18 18 18 18 18 18 17 17 17 17 17 16 16 16 15 16 16 16 15 15
22 20 20 19 20 20 19 18 19 19 19 20 20 20 20 19 19 18 19 19 19 19 18 18 18 18 18 17 17 18 18 17 17 17 17 16 15 15 15 15 15 15 14
23 21 20 19 19 19 18 18 18 18 19 19 20 20 20 20 19 19 18 19 19 18 18 19 18 17 17 18 18 18 17 17 16 16 16 16 15 15 15 15 15 15 14
24 22 21 20 19 19 18 18 18 18 17 17 19 20 20 20 19 19 19 19 19 18 18 19 18 17 17 17 17 16 16 16 16 16 16 16 16 15 15 15 15 14 14
24 23 22 21 20 20 19 18 18 18 18 17 18 19 20 20 20 19 19 19 19 18 18 18 18 17 16 16 15 13 11 14 15 16 16 15 16 15 16 15 14 14 14
24 23 22 21 21 20 19 18 18 19 19 18 18 19 19 19 19 19 19 19 19 19 18 18 18 17 15 15 16 15 10 10 10 14 15 15 15 15 15 14 14 14 13
23 23 22 21 20 19 18 18 18 19 18 18 18 18 19 19 19 20 20 20 18 18 17 17 18 17 15 14 13 14 15 14 10 10 13 14 14 14 14 14 13 13 13
23 22 21 20 19 18 18 18 18 18 18 18 18 18 18 18 19 19 19 19 19 17 17 16 16 15 13 11 10 12 12 12 12 10 9 10 12 13 12 12 12 12 12
22 22 21 19 18 18 18 18 18 18 18 18 18 18 18 18 18 18 19 19 19 18 17 16 15 13 13 13 12 12 14 13 11 9 8 8 9 11 11 12 11 11 11
Height
784 784 791 795 799 803 804 807 808 810 811 811 811 812 814 817 818 820 820 821 822 823 823 824 824 824 825 826 827 828 828 829 829 829 829 830 830 829 829 830 830 829 828
781 783 789 794 798 803 806 808 809 812 814 815 814 814 816 819 821 822 824 824 825 825 825 826 826 826 827 829 830 831 832 832 832 832 832 832 832 832 831 830 830 828 829
783 786 789 793 797 804 807 809 811 814 815 817 817 817 818 820 822 824 825 826 826 826 827 827 827 828 829 830 832 832 832 832 832 832 832 831 832 831 831 830 829 829 830
782 787 790 795 799 804 807 810 812 815 816 818 819 819 820 821 823 825 826 827 827 827 827 827 828 828 829 831 832 832 832 833 834 833 833 833 833 832 832 832 831 831 831
784 788 791 796 801 804 807 810 814 816 818 819 820 821 821 822 823 825 825 826 826 826 826 827 828 829 829 831 831 832 832 833 833 833 833 833 834 834 833 832 832 832 831
786 789 793 798 801 805 808 811 815 817 819 820 821 822 822 823 824 825 825 825 826 826 827 828 828 830 830 830 831 831 833 834 834 834 834 834 834 834 834 833 833 833 834
786 790 794 798 801 805 808 811 815 817 819 820 821 821 822 823 824 824 825 826 826 827 829 829 830 831 831 832 833 833 833 833 833 833 833 833 834 834 834 833 834 834 833
785 789 794 798 801 804 807 811 814 817 818 819 820 821 822 824 824 826 826 827 828 828 829 830 830 831 832 833 834 834 833 833 833 834 833 833 835 835 835 835 834 834 834
786 789 793 797 801 803 807 810 813 815 817 819 820 821 822 824 826 826 827 827 827 828 828 829 830 831 831 832 832 832 831 831 832 832 832 832 833 834 834 835 835 835 834
787 790 794 798 801 804 807 809 811 813 816 817 819 822 823 824 825 826 827 827 827 828 828 830 830 831 831 831 830 831 832 832 832 831 831 832 833 832 832 833 835 836 835
788 790 793 796 799 803 806 809 811 813 815 816 818 820 821 822 823 825 826 827 827 828 829 829 829 829 830 830 830 831 831 831 831 831 832 831 831 831 831 830 833 834 834
786 787 789 792 796 801 804 806 809 811 813 815 816 818 820 821 823 823 825 826 827 828 828 829 829 829 830 830 830 831 832 831 831 830 831 831 832 833 833 833 833 832 832
778 784 787 790 793 796 800 803 806 808 811 813 814 816 818 819 821 822 823 825 826 827 827 827 828 828 829 829 830 830 830 831 830 830 830 831 831 831 832 831 830 830 831
776 778 782 786 790 793 796 799 802 804 807 809 811 814 816 817 818 820 821 823 824 824 825 825 826 827 827 828 828 829 829 829 829 829 828 829 829 830 832 831 830 829 827
774 774 775 780 782 787 791 794 797 799 802 806 809 811 812 814 815 818 819 820 822 823 823 823 823 824 825 825 826 826 826 825 825 825 826 826 827 827 828 828 828 828 828
769 769 772 774 777 782 785 788 790 794 798 801 804 806 809 811 813 814 816 818 818 819 820 820 820 821 822 822 823 823 824 823 823 825 825 824 823 823 824 826 826 825 825
758 764 765 769 776 778 780 783 786 789 794 796 799 802 804 806 808 810 812 813 814 815 816 817 817 818 819 820 821 821 820 820 820 820 820 820 820 819 820 821 821 822 822
763 761 764 766 769 774 777 780 784 787 790 792 794 797 799 802 804 806 807 808 810 811 812 813 814 814 815 817 817 818 818 818 818 817 817 818 818 818 816 816 817 818 818
750 757 759 761 762 766 773 778 781 784 786 787 790 791 793 796 799 801 802 803 805 806 807 809 810 813 814 815 816 816 817 816 816 814 814 814 814 812 813 813 812 813 815
745 750 755 758 760 764 771 776 778 779 779 781 782 784 788 790 793 796 797 797 799 801 802 804 805 809 809 810 812 812 812 811 812 813 812 811 811 812 811 811 809 809 811
739 745 748 752 753 759 763 767 770 767 772 774 775 779 782 785 787 789 790 792 794 795 796 798 802 804 805 805 807 806 805 807 806 807 808 808 807 808 810 808 807 806 806
726 731 738 741 747 748 752 756 763 765 768 770 772 774 776 778 780 782 783 784 787 789 792 795 798 799 801 803 805 809 813 808 805 806 805 806 805 805 806 805 804 804 805
719 722 725 728 733 738 745 754 758 763 764 766 766 766 768 772 774 775 777 779 782 784 786 789 790 791 796 797 797 801 810 813 806 803 802 804 802 802 802 803 800 799 799
708 712 719 723 728 733 740 745 749 751 754 754 759 762 763 766 767 769 772 774 775 777 779 780 784 786 789 787 787 799 800 805 809 810 799 802 802 800 797 799 799 797 796
706 710 717 723 727 731 735 740 744 748 749 752 756 759 759 760 762 764 766 768 771 772 774 775 778 777 786 771 775 794 803 804 803 807 803 801 799 797 792 793 795 794 794
706 712 717 722 726 730 735 738 740 742 745 749 752 753 753 755 757 759 760 761 763 764 765 768 771 771 779 780 784 793 792 804 804 799 799 799 793 790 785 785 788 788 787
Wind_Speed
23 34 30 27 24 21 20 19 18 18 20 22 23 23 22 21 20 18 17 16 15 14 14 13 14 15 16 16 17 19 19 19 17 16 15 13 13 14 15 14 14 13 13
33 35 31 28 25 22 20 18 18 18 19 20 21 22 21 19 17 16 15 15 14 13 13 12 13 14 15 15 16 16 16 15 15 14 13 12 12 12 12 12 12 14 14
34 33 32 30 27 23 20 18 17 17 18 18 19 19 19 17 16 15 14 13 12 12 11 12 13 13 13 14 14 13 12 10 8 8 9 11 11 12 12 12 12 13 13
36 33 31 29 27 24 21 19 17 15 16 17 16 16 16 15 14 13 12 12 11 11 11 11 11 12 12 11 11 10 9 7 7 7 5 8 8 8 10 10 9 9 9
34 33 31 29 26 25 22 19 16 15 15 16 15 14 14 14 13 13 12 11 10 10 10 10 10 10 10 10 9 7 6 6 6 4 4 5 5 6 7 8 7 6 7
32 31 29 28 27 25 22 20 17 16 15 15 14 13 12 12 13 12 11 11 9 8 8 8 8 7 7 7 7 6 4 3 3 5 3 3 2 4 5 7 6 5 6
30 28 28 27 26 25 22 20 18 17 16 15 14 13 13 12 12 12 10 9 8 7 6 6 6 5 5 4 2 3 3 2 2 2 3 3 3 2 3 4 4 4 5
30 28 26 25 26 25 24 21 20 18 17 15 14 13 12 12 12 11 10 8 6 6 5 4 3 3 2 2 1 2 3 4 4 2 2 6 3 3 4 4 3 4 4
28 28 27 27 27 25 24 23 22 20 18 16 15 14 13 12 11 10 9 8 6 5 5 5 4 3 2 2 2 2 4 4 5 4 1 3 5 6 6 5 4 5 5
26 26 27 27 27 25 24 24 23 21 20 18 17 15 13 12 12 10 9 7 6 5 5 4 4 2 2 2 1 2 1 2 3 5 5 4 6 8 8 7 6 7 7
26 27 28 28 27 26 26 25 23 22 22 20 19 17 16 16 15 12 10 8 7 5 5 5 5 4 3 2 2 2 1 2 3 2 1 6 10 10 9 8 7 8 8
29 31 32 31 30 28 28 27 27 26 24 23 22 20 19 17 16 13 11 9 8 6 6 6 6 5 5 3 3 2 1 3 2 3 4 5 7 11 9 10 11 9 9
35 33 33 33 32 32 32 31 30 29 28 26 25 24 21 19 17 16 13 12 11 9 9 9 9 7 6 5 3 3 3 3 5 6 7 8 8 8 10 11 12 11 10
36 37 36 36 35 35 35 35 34 33 32 31 29 26 24 22 21 19 17 15 13 12 11 11 10 9 8 7 5 5 5 5 6 8 9 10 9 10 10 12 12 12 12
37 40 40 40 42 41 40 39 38 38 36 34 31 29 27 26 24 21 19 18 16 14 13 12 13 12 10 9 9 8 8 9 9 10 11 10 9 10 14 14 14 12 12
38 42 43 44 45 45 45 44 43 41 39 36 34 32 30 28 27 24 23 22 21 19 17 16 16 15 14 12 12 10 8 7 10 12 12 11 12 13 15 17 14 12 15
44 39 45 45 44 47 48 46 45 44 41 39 37 34 32 31 30 28 27 26 24 23 21 19 19 18 18 16 13 12 12 12 12 12 12 12 11 11 12 14 16 17 18
29 37 40 43 45 46 48 45 44 43 42 40 39 36 35 34 33 30 30 29 27 25 24 25 24 23 20 19 17 15 12 11 11 13 13 13 14 17 16 16 17 17 15
40 36 39 42 46 48 46 42 41 40 41 40 38 37 36 36 34 34 33 33 29 30 29 29 29 26 22 20 17 14 14 13 14 14 14 13 15 14 13 15 14 15 15
36 39 40 41 41 42 37 34 36 39 42 41 40 38 35 34 34 35 35 35 31 31 31 30 33 28 24 23 18 15 16 16 16 17 14 12 12 11 11 10 11 14 15
36 35 39 40 41 42 39 36 33 39 36 38 43 39 37 35 35 36 37 37 36 34 35 33 31 30 26 21 15 15 18 21 20 18 13 11 10 9 11 14 15 16 16
41 44 42 44 41 49 42 39 30 29 28 32 34 40 38 37 37 37 39 40 39 39 37 36 35 30 28 22 8 2 4 4 8 11 11 10 11 10 10 13 16 17 16
36 41 45 47 48 47 40 31 27 23 25 25 33 38 39 38 38 39 41 40 39 39 39 39 39 39 23 25 24 8 3 4 3 5 11 10 8 8 9 14 15 17 20
37 39 39 39 38 39 38 33 34 30 25 32 30 33 37 38 37 38 38 38 38 38 39 40 40 37 28 20 20 15 12 5 3 3 8 11 11 11 11 13 15 19 24
24 31 30 29 30 31 38 35 33 28 29 23 29 30 34 36 38 39 38 36 36 38 38 37 35 32 21 17 11 10 19 13 12 5 3 6 10 13 12 12 16 19 21
17 21 24 26 25 31 34 37 37 35 31 29 24 28 32 34 35 38 41 41 41 40 39 36 32 24 11 10 10 22 10 5 7 6 4 9 10 14 9 13 16 19 18
Wind_Direction
176 161 164 162 161 159 151 146 139 137 135 132 131 130 129 129 129 128 127 126 122 115 109 104 101 102 101 99 98 94 93 90 80 81 74 66 61 64 65 63 62 65 73
165 164 165 164 166 165 157 153 147 145 141 137 134 132 132 132 131 129 127 125 118 114 113 111 110 110 107 103 106 102 98 94 84 89 85 82 75 70 68 68 62 54 50
165 166 166 168 169 166 163 159 152 148 145 142 140 136 135 135 134 132 131 128 125 122 119 117 115 114 114 111 108 104 104 99 86 88 83 76 71 61 57 59 57 50 45
166 169 169 171 169 167 169 163 160 155 150 147 145 141 140 138 137 136 134 131 128 127 125 122 123 123 124 119 116 119 114 94 70 60 84 70 72 64 60 58 56 46 45
168 170 171 173 170 172 170 168 168 162 157 154 151 148 145 141 142 143 139 139 140 135 133 133 130 128 128 129 133 138 133 113 106 76 110 79 63 58 48 49 48 51 55
171 171 173 173 174 175 174 172 174 171 166 161 158 155 152 151 152 151 150 150 145 144 142 138 135 135 135 141 153 156 140 118 94 30 129 65 9 26 26 34 45 42 42
172 171 174 176 177 177 177 177 181 179 174 169 169 167 166 165 164 163 161 157 153 150 142 136 132 137 144 146 158 180 193 201 197 103 143 194 255 324 356 23 23 28 29
172 172 175 177 180 181 182 183 187 186 182 180 178 179 178 175 175 172 161 158 155 143 141 133 142 157 147 153 229 240 235 243 260 254 277 220 223 304 314 337 353 358 356
173 173 176 179 183 184 185 190 192 190 189 188 188 190 186 185 182 178 170 167 159 157 164 179 184 180 171 167 198 246 248 246 250 248 263 191 220 269 283 291 320 322 332
175 177 178 181 184 188 190 195 196 196 196 195 196 196 195 191 191 190 183 177 174 184 193 200 199 202 187 205 182 212 261 303 270 250 238 229 252 248 271 275 295 306 316
180 184 186 185 188 192 196 199 201 202 202 201 202 201 202 201 198 198 197 195 198 211 213 220 213 216 217 213 182 147 41 342 282 234 249 267 260 256 250 260 280 291 301
188 190 191 192 195 196 200 202 204 206 205 206 207 207 209 209 206 204 202 207 212 222 225 223 224 224 224 191 163 204 277 336 333 234 267 290 282 263 250 273 280 287 294
190 193 197 198 199 199 202 204 206 208 209 210 213 212 211 212 209 211 209 211 217 222 231 225 224 219 216 204 207 200 254 283 296 287 291 296 293 261 260 269 279 281 288
197 197 198 202 203 204 206 208 209 210 212 213 215 216 215 216 214 214 216 216 220 225 233 226 220 220 226 235 240 257 268 265 280 280 277 278 277 261 270 279 271 274 276
200 201 203 204 206 207 208 210 213 214 215 216 218 218 219 220 221 218 219 217 223 227 231 225 219 222 232 239 245 257 265 268 272 279 282 281 284 275 269 274 280 273 259
206 206 205 207 209 208 210 213 216 216 218 219 221 222 223 226 226 224 225 224 227 228 232 228 223 227 236 243 245 245 257 263 266 272 274 273 264 256 264 272 276 278 278
209 207 207 209 210 212 213 216 218 220 220 222 223 226 227 228 229 228 228 228 228 228 233 236 234 238 241 233 233 242 252 262 264 269 269 267 265 268 275 279 282 285 283
210 210 208 208 210 214 216 217 219 222 223 225 227 228 230 231 233 231 230 232 231 232 235 239 239 238 230 225 234 245 257 267 275 275 276 278 284 283 281 282 286 290 288
209 208 208 207 210 213 215 216 220 224 226 226 228 229 231 233 233 234 233 235 235 236 239 241 236 234 224 227 234 246 262 271 280 275 275 276 278 276 280 283 283 291 295
207 209 211 208 207 209 209 212 218 223 226 226 227 229 230 232 233 233 237 238 238 239 238 237 232 225 228 232 235 245 257 264 267 267 269 265 270 273 280 289 300 301 300
207 202 207 205 206 204 203 206 210 216 220 223 227 230 231 231 234 235 238 240 240 240 237 230 225 226 228 223 218 240 254 264 258 256 256 264 274 286 294 299 301 303 302
202 202 205 209 204 207 205 208 212 216 222 224 226 231 233 233 234 238 240 243 242 240 239 230 228 226 229 213 191 134 328 305 261 247 234 252 265 276 297 300 298 301 301
200 200 203 206 207 206 204 202 211 211 220 223 230 232 232 232 237 239 241 244 245 239 233 232 235 230 214 208 210 170 123 242 312 255 261 257 249 262 282 309 300 294 291
201 202 206 203 202 202 198 199 202 206 209 222 225 229 233 233 235 238 242 246 247 241 232 233 239 232 220 204 197 221 227 194 180 304 260 264 256 263 287 296 293 291 293
200 199 202 201 200 197 201 205 204 208 217 225 228 233 236 238 239 240 239 241 249 247 243 242 239 226 223 168 146 247 232 237 241 211 246 265 255 263 279 289 291 298 295
199 196 194 193 195 205 209 212 215 216 222 227 228 229 236 240 242 242 242 243 246 244 242 245 235 208 172 186 257 245 216 212 223 198 216 251 236 267 265 294 283 287 293